N8WJE Weather Reports


time (UTC)temp
C
wind
direction
speed
KPH
gust
KPH
rain 1hr
cm
rain 24hr
cm
rain mn
cm
humidity
%
barometer
mb
20260504130503 13 275 4.8 17.7 0.00 0.00 0.00 67 1017.4
20260504130217 13 275 1.6 12.9 0.00 0.00 0.00 70 1017.1
20260504110503 8 0 0.0 0.0 0.00 0.00 0.00 89 1016.4
20260504100503 8 0 0.0 0.0 0.00 0.00 0.00 87 1016.4
20260504082003 10 0 0.0 0.0 0.00 0.00 0.00 83 1016.3
20260504081503 10 0 0.0 0.0 0.00 0.00 0.00 83 1016.2
20260504081217 10 0 0.0 0.0 0.00 0.00 0.00 83 1016.3
20260504080503 10 0 0.0 0.0 0.00 0.00 0.00 82 1016.3
20260504050503 11 275 0.0 1.6 0.00 0.00 0.00 77 1017.8
20260504050003 12 275 0.0 6.4 0.00 0.00 0.00 74 1017.8
20260504045503 12 275 0.0 6.4 0.00 0.00 0.00 74 1017.7
20260504045003 12 275 0.0 1.6 0.00 0.00 0.00 75 1017.8
20260504044717 12 275 0.0 1.6 0.00 0.00 0.00 73 1017.9
20260504044218 12 275 0.0 1.6 0.00 0.00 0.00 74 1017.7
20260504043503 12 275 0.0 4.8 0.00 0.00 0.00 75 1017.8
20260504043003 12 0 0.0 0.0 0.00 0.00 0.00 73 1017.7
20260504042503 12 275 0.0 1.6 0.00 0.00 0.00 72 1017.7
20260504042003 12 275 0.0 1.6 0.00 0.00 0.00 73 1017.9
20260504041503 12 0 0.0 0.0 0.00 0.00 0.00 74 1017.7
20260504041003 13 275 1.6 6.4 0.00 0.00 0.00 69 1017.6
20260504040716 13 275 1.6 6.4 0.00 0.00 0.00 68 1017.5
20260504040003 13 275 0.0 9.7 0.00 0.00 0.00 67 1017.6
20260504035503 13 275 1.6 6.4 0.00 0.00 0.00 66 1017.6
20260504035217 13 275 1.6 6.4 0.00 0.00 0.00 66 1017.5
20260504034716 13 275 1.6 6.4 0.00 0.00 0.00 67 1017.7
20260504034003 13 275 0.0 4.8 0.00 0.00 0.00 67 1017.8
20260504033503 13 275 1.6 4.8 0.00 0.00 0.00 67 1017.8
20260504033003 12 275 0.0 4.8 0.00 0.00 0.00 69 1017.8
20260504032503 12 275 0.0 4.8 0.00 0.00 0.00 72 1018.2
20260504032003 11 0 0.0 0.0 0.00 0.00 0.00 75 1018.2
20260504031503 11 0 0.0 0.0 0.00 0.00 0.00 75 1018.2
20260504031217 11 0 0.0 0.0 0.00 0.00 0.00 75 1018.3
20260504030716 11 0 0.0 0.0 0.00 0.00 0.00 75 1018.4
20260504030003 11 0 0.0 0.0 0.00 0.00 0.00 73 1018.5
20260504025503 11 0 0.0 0.0 0.00 0.00 0.00 73 1018.4
20260504025003 11 0 0.0 0.0 0.00 0.00 0.00 74 1018.6
20260504024718 12 0 0.0 0.0 0.00 0.00 0.00 74 1018.5
20260504024003 12 0 0.0 0.0 0.00 0.00 0.00 73 1018.2
20260504023718 12 0 0.0 0.0 0.00 0.00 0.00 71 1018.3
20260504023003 12 0 0.0 0.0 0.00 0.00 0.00 71 1018.2
20260504022503 12 0 0.0 0.0 0.00 0.00 0.00 72 1018.3
20260504022003 12 0 0.0 0.0 0.00 0.00 0.00 69 1018.3
20260504021718 12 0 0.0 0.0 0.00 0.00 0.00 69 1018.2
20260504021217 12 0 0.0 0.0 0.00 0.00 0.00 70 1018.2
20260504020503 12 0 0.0 0.0 0.00 0.00 0.00 69 1018.1
20260504020004 13 0 0.0 0.0 0.00 0.00 0.00 68 1018.0
20260504015503 13 0 0.0 0.0 0.00 0.00 0.00 67 1017.9
20260504015217 13 0 0.0 0.0 0.00 0.00 0.00 69 1018.0
20260504014503 13 0 0.0 0.0 0.00 0.00 0.00 66 1018.0
20260504014003 13 0 0.0 0.0 0.00 0.00 0.00 67 1017.7
20260504013503 13 0 0.0 0.0 0.00 0.00 0.00 63 1017.5
20260504013003 13 0 0.0 0.0 0.00 0.00 0.00 64 1017.4
20260504012503 13 0 0.0 0.0 0.00 0.00 0.00 65 1017.4
20260504012003 13 0 0.0 0.0 0.00 0.00 0.00 66 1017.4
20260504011718 13 0 0.0 0.0 0.00 0.00 0.00 64 1017.4
20260504011003 14 0 0.0 0.0 0.00 0.00 0.00 62 1017.3
20260504010503 14 0 0.0 0.0 0.00 0.00 0.00 59 1017.3
20260504010003 15 0 0.0 0.0 0.00 0.00 0.00 59 1017.3
20260504005503 15 0 0.0 0.0 0.00 0.00 0.00 58 1017.5
20260504005003 15 0 0.0 0.0 0.00 0.00 0.00 56 1017.4
20260504004503 15 0 0.0 0.0 0.00 0.00 0.00 58 1017.4
20260504004216 15 0 0.0 0.0 0.00 0.00 0.00 52 1017.4
20260504003503 15 0 0.0 0.0 0.00 0.00 0.00 53 1017.3
20260504003003 16 0 0.0 0.0 0.00 0.00 0.00 52 1017.4
20260504002503 16 0 0.0 0.0 0.00 0.00 0.00 52 1017.3
20260504002003 16 0 0.0 0.0 0.00 0.00 0.00 51 1017.5
20260504001503 16 0 0.0 0.0 0.00 0.00 0.00 51 1017.5
20260504001003 17 0 0.0 0.0 0.00 0.00 0.00 48 1017.6
20260504000717 17 0 0.0 0.0 0.00 0.00 0.00 50 1017.5
20260504000003 17 0 0.0 0.0 0.00 0.00 0.00 46 1017.6
20260503235503 17 0 0.0 0.0 0.00 0.00 0.00 43 1017.7
20260503235003 18 0 0.0 0.0 0.00 0.00 0.00 45 1017.6
20260503234503 18 0 0.0 0.0 0.00 0.00 0.00 42 1017.7
20260503234003 18 0 0.0 0.0 0.00 0.00 0.00 45 1017.7
20260503233503 18 276 0.0 4.8 0.00 0.00 0.00 44 1017.9
20260503233003 18 276 1.6 6.4 0.00 0.00 0.00 39 1017.8
20260503232503 18 276 1.6 6.4 0.00 0.00 0.00 39 1017.6
20260503232003 18 276 1.6 9.7 0.00 0.00 0.00 39 1017.7
20260503231503 18 276 1.6 9.7 0.00 0.00 0.00 40 1017.7
20260503231003 18 276 1.6 6.4 0.00 0.00 0.00 38 1017.8
20260503230503 18 276 0.0 4.8 0.00 0.00 0.00 38 1017.9
20260503230003 18 276 1.6 4.8 0.00 0.00 0.00 40 1017.7
20260503225503 18 276 1.6 6.4 0.00 0.00 0.00 39 1017.7
20260503225003 18 276 1.6 6.4 0.00 0.00 0.00 38 1017.8
20260503224503 18 276 1.6 12.9 0.00 0.00 0.00 39 1017.9
20260503224003 18 276 1.6 12.9 0.00 0.00 0.00 40 1017.9
20260503223503 18 276 0.0 6.4 0.00 0.00 0.00 40 1017.8
20260503223003 18 276 0.0 4.8 0.00 0.00 0.00 42 1017.9
20260503222717 18 276 0.0 6.4 0.00 0.00 0.00 39 1017.9
20260503222003 18 276 0.0 6.4 0.00 0.00 0.00 41 1017.9
20260503221716 18 0 0.0 0.0 0.00 0.00 0.00 43 1018.0
20260503221003 18 225 0.0 1.6 0.00 0.00 0.00 40 1018.0
20260503220503 18 225 0.0 1.6 0.00 0.00 0.00 41 1018.1
20260503220003 18 0 0.0 0.0 0.00 0.00 0.00 40 1018.1
20260503215716 18 0 0.0 0.0 0.00 0.00 0.00 41 1018.2
20260503215003 18 0 0.0 0.0 0.00 0.00 0.00 40 1018.3
20260503214503 18 190 1.6 12.9 0.00 0.00 0.00 39 1018.2
20260503214003 18 213 1.6 12.9 0.00 0.00 0.00 40 1018.2
20260503213718 18 243 1.6 12.9 0.00 0.00 0.00 40 1018.2
20260503213217 19 274 1.6 6.4 0.00 0.00 0.00 39 1018.5
20260503212503 19 274 1.6 9.7 0.00 0.00 0.00 42 1018.5
20260503212003 20 274 4.8 12.9 0.00 0.00 0.00 39 1018.5
20260503211503 20 274 1.6 12.9 0.00 0.00 0.00 40 1018.5
20260503211003 20 274 4.8 12.9 0.00 0.00 0.00 39 1018.8
20260503210503 20 274 4.8 12.9 0.00 0.00 0.00 39 1018.8
20260503210003 20 274 1.6 12.9 0.00 0.00 0.00 37 1018.8
20260503205503 19 274 1.6 9.7 0.00 0.00 0.00 43 1018.8
20260503205003 19 274 4.8 12.9 0.00 0.00 0.00 44 1018.7
20260503204503 20 274 4.8 12.9 0.00 0.00 0.00 42 1018.8
20260503204003 20 274 1.6 9.7 0.00 0.00 0.00 38 1018.9
20260503203718 20 274 1.6 9.7 0.00 0.00 0.00 37 1018.9
20260503203003 20 274 4.8 9.7 0.00 0.00 0.00 41 1018.9
20260503202503 20 257 4.8 9.7 0.00 0.00 0.00 40 1018.9
20260503202003 19 223 4.8 16.1 0.00 0.00 0.00 39 1019.0
20260503201503 19 256 4.8 16.1 0.00 0.00 0.00 38 1019.0
20260503201003 20 273 4.8 16.1 0.00 0.00 0.00 38 1019.1
20260503200503 21 273 4.8 9.7 0.00 0.00 0.00 37 1019.1
20260503200004 20 273 1.6 9.7 0.00 0.00 0.00 38 1019.3
20260503195503 18 273 1.6 9.7 0.00 0.00 0.00 39 1019.4
20260503195003 20 273 1.6 12.9 0.00 0.00 0.00 38 1019.4
20260503194503 20 273 1.6 12.9 0.00 0.00 0.00 42 1019.7
20260503194003 19 273 1.6 12.9 0.00 0.00 0.00 44 1019.6
20260503193717 19 273 1.6 16.1 0.00 0.00 0.00 44 1019.8
20260503193003 18 273 1.6 16.1 0.00 0.00 0.00 45 1020.0
20260503192503 19 273 1.6 12.9 0.00 0.00 0.00 46 1020.1
20260503192003 18 273 1.6 12.9 0.00 0.00 0.00 44 1020.3
20260503191503 19 273 4.8 12.9 0.00 0.00 0.00 44 1020.4
20260503191003 19 273 4.8 12.9 0.00 0.00 0.00 45 1020.4
20260503190717 18 273 1.6 12.9 0.00 0.00 0.00 46 1020.5
20260503190003 18 273 4.8 16.1 0.00 0.00 0.00 52 1020.3
20260503185503 18 273 4.8 16.1 0.00 0.00 0.00 46 1020.6
20260503185003 18 243 4.8 17.7 0.00 0.00 0.00 46 1020.6
20260503184503 18 202 4.8 17.7 0.00 0.00 0.00 49 1020.7
20260503184003 18 197 1.6 16.1 0.00 0.00 0.00 48 1020.6
20260503183503 17 199 1.6 9.7 0.00 0.00 0.00 47 1020.5
20260503183003 17 179 1.6 9.7 0.00 0.00 0.00 44 1020.7
20260503182503 17 203 4.8 16.1 0.00 0.00 0.00 49 1020.8
20260503182003 17 249 1.6 16.1 0.00 0.00 0.00 47 1020.8
20260503181504 17 272 1.6 9.7 0.00 0.00 0.00 47 1020.8
20260503181218 17 272 1.6 9.7 0.00 0.00 0.00 48 1020.8
20260503180503 17 272 1.6 6.4 0.00 0.00 0.00 46 1020.8
20260503180003 17 272 4.8 12.9 0.00 0.00 0.00 49 1020.8
20260503175503 17 272 1.6 12.9 0.00 0.00 0.00 48 1020.8
20260503175003 16 272 0.0 9.7 0.00 0.00 0.00 48 1020.9
20260503174503 16 209 1.6 11.3 0.00 0.00 0.00 49 1021.1
20260503174003 16 194 6.4 20.9 0.00 0.00 0.00 52 1021.2
20260503173503 16 195 6.4 22.5 0.00 0.00 0.00 50 1021.2
20260503173003 16 206 1.6 22.5 0.00 0.00 0.00 50 1021.1
20260503172717 16 271 1.6 16.1 0.00 0.00 0.00 50 1021.3
20260503172003 16 271 1.6 16.1 0.00 0.00 0.00 51 1021.3
20260503171503 15 271 1.6 16.1 0.00 0.00 0.00 50 1021.4
20260503171003 15 271 1.6 9.7 0.00 0.00 0.00 51 1021.5
20260503170503 15 271 1.6 9.7 0.00 0.00 0.00 53 1021.3
20260503170217 15 271 1.6 16.1 0.00 0.00 0.00 52 1021.5
20260503151003 12 271 1.6 9.7 0.00 0.00 0.00 57 1021.9
20260503150503 12 271 0.0 4.8 0.00 0.00 0.00 63 1021.9